Skip Page Navigation
NASA JPL Caltech
NASA Logo - Jet Propulsion Laboratory + View the NASA Portal
+ Center for Near-Earth Object Studies
JPL Home Earth Solar System Stars & Galaxies Technology
JPL Solar System Dynamics
BODIES ORBITS EPHEMERIDES TOOLS PHYSICAL DATA DISCOVERY FAQ SITE MAP
IMPORTANT: The SSD Announcement email list is now available. Major changes are coming in the near future, including possible hostname and/or URL changes. To be notified of such changes, subscribe to this email list.

Please visit this page for more details.


JPL Small-Body Database Browser
Search: [ help ]  
359586 (2010 UA53)
Classification: Main-belt Asteroid          SPK-ID: 2359586
Ephemeris | Orbit Diagram | Orbital Elements | Mission Design | Physical Parameters | Discovery Circumstances | Close-Approach Data ]

[ show orbit diagram ]
Orbital Elements at Epoch 2458600.5 (2019-Apr-27.0) TDB
Reference: JPL 13 (heliocentric ecliptic J2000)
 Element Value Uncertainty (1-sigma)   Units 
e .1245822777349899 1.1576e-07  
a 3.083971064576302 5.4707e-08 au
q 2.699762924882585 3.8203e-07 au
i 7.214677828056263 1.2578e-05 deg
node 12.8156098987461 4.3271e-05 deg
peri 325.5718906557339 5.6723e-05 deg
M 257.1384400191167 3.3942e-05 deg
tp 2459165.716035464297
(2020-Nov-12.21603546)
0.00018831 TDB
period 1978.171173030655
5.42
5.2637e-05
1.441e-07
d
yr
n .1819862734368242 4.8424e-09 deg/d
Q 3.468179204270019 6.1523e-08 au
  Orbit Determination Parameters
   # obs. used (total)      192  
   data-arc span      7217 days (19.76 yr)  
   first obs. used      1999-09-30  
   last obs. used      2019-07-04  
   planetary ephem.      DE431  
   SB-pert. ephem.      SB431-N16  
   condition code      0  
   norm. resid. RMS      .63476  
   source      ORB  
   producer      Otto Matic  
   solution date      2019-Sep-24 06:44:50  

Additional Information
 Earth MOID = 1.69421 au 
 Jupiter MOID = 1.94159 au 
 T_jup = 3.203 
[ show covariance matrix ]

Ephemeris | Orbit Diagram | Orbital Elements | Mission Design | Physical Parameters | Discovery Circumstances | Close-Approach Data ]

Physical Parameter Table
Parameter Symbol Value Units Sigma Reference Notes
absolute magnitude H 16.0   n/a MPO353170  
diameter diameter 4.052 km 0.711 urn:nasa:pds:neowise_diameters_albedos::2.0[mainbelt] (http://adsabs.harvard.edu/abs/2012ApJ...759L...8M)  
geometric albedo albedo 0.056   0.017 urn:nasa:pds:neowise_diameters_albedos::2.0[mainbelt] (http://adsabs.harvard.edu/abs/2012ApJ...759L...8M)  

359586 (2010 UA53)          Discovered 1999-Sep-30 by Spacewatch at Kitt Peak
Reference: 20130327/Numbers.arcLast Updated: 2013-03-29

[ hide close-approach data ]
Close-Approach Data   ...sorted by Date/Time (TDB)
Date/Time (TDB) Time Uncertainty
(days_HH:MM)
Body Nominal Distance (au) Minimum Distance (au) Maximum Distance (au) V-relative (km/s) V-infinity (km/s) JD (TDB) Time Uncertainty (minutes) Semi-major axis (km) Semi-minor axis (km) range-LOV angle (deg) N-sigma BP Orbit Ref. Reference Modified
1920-Mar-09 09:01 00:08 Jupiter 1.9558578940178 1.95585694954015 1.95585883849511 2.76957191584422 2.6085224704512 2422392.875643457 7.8747253812449 157.011233142668 34.5450194281969 87.1063839599652 1512646.31465021 T 13 CATAB v2.0f-lin.ifort 2019-Sep-24 06:44:52 2019-Sep-24 06:44
1980-Feb-27 05:48 00:03 Jupiter 1.96520195364307 1.96520095399304 1.96520295329276 2.96517158811045 2.81606493366486 2444296.741410341 2.88881448222553 147.884599524705 34.1732410039564 88.6958472133825 1242201.92745966 T 13 CATAB v2.0f-lin.ifort 2019-Sep-24 06:44:52 2019-Sep-24 06:44
2049-Dec-30 20:11 00:03 Jupiter 1.97927500804688 1.97927417592743 1.97927584016711 2.81642176188597 2.66013906606811 2469806.340712011 3.03357390537249 113.833446381867 21.8803265611948 -76.1752779695201 2272004.99655537 T 13 CATAB v2.0f-lin.ifort 2019-Sep-24 06:44:52 2019-Sep-24 06:44
2109-Dec-24 22:28 00:08 Jupiter 1.95721269404569 1.95721189096566 1.95721349712572 2.84186901577184 2.68527092372781 2491714.436300634 7.86389521838977 127.935676590807 32.1511756856157 88.8652206555738 1535007.55440546 T 13 CATAB v2.0f-lin.ifort 2019-Sep-24 06:44:52 2019-Sep-24 06:44
2169-Dec-12 06:09 00:12 Jupiter 1.95831119638226 1.95830989821205 1.95831249456772 2.98861349388807 2.84020361344673 2513616.756049181 12.4786268846971 404.977728717445 32.1053454653742 -87.3520195888162 1263830.37051787 T 13 CATAB v2.0f-lin.ifort 2019-Sep-24 06:44:52 2019-Sep-24 06:44

Alternate Designations
 2010 UA53 = 1999 TO138 = 2004 RR73 = 2010 PA70 
Ephemeris | Orbit Diagram | Orbital Elements | Mission Design | Physical Parameters | Discovery Circumstances | Close-Approach Data ]
ABOUT SSD CREDITS/AWARDS PRIVACY/COPYRIGHT GLOSSARY LINKS
FirstGov 2019-Dec-14 10:49 UT
(server date/time)  
NASA Home Page
Site Manager:   Ryan S. Park
Webmaster  Alan B. Chamberlin